Погода в Коваламе

Индия     8°23′53″N   76°58′55″E
темп.,
°C
ветер,
м/с
пор.,
м/с
влажн.,
%
обл.,
%
осадки,
мм/ч
давл.,
гПа
погр.,
м
4 марта, чт
чт423:30+23ссв22670 0.0 101249
02:30+21всв22620 0.0 101031
05:30+19в23730 0.0 101058
08:30+27всв12570 0.0 1013349
11:30+34зюз23260 0.0 10131758
14:30+32ююз54360 0.0 1009982
17:30+29юз34550 0.0 1009619
20:30+24с12780 0.0 101232
5 марта, пт
пт523:30+23ссв22730 0.0 101341
02:30+22всв22660 0.0 101134
05:30+21св22760 0.0 101136
08:30+28всв12530 0.0 1014289
11:30+34юз33320 0.0 10131308
14:30+32юз44380 0.0 1009833
17:30+28юз34540 0.0 1009680
20:30+24св00780 0.0 101224
6 марта, сб
сб623:30+23ссв22770 0.0 101344
02:30+22св127637 0.0 101123
05:30+21ссв127169 0.0 101123
08:30+28с014966 0.0 1014280
11:30+34з333333 0.0 10141285
14:30+32зюз444848 0.0 1010818
17:30+28з336324 0.0 1009722
20:30+24с12820 0.0 101224
7 марта, вс
вс723:30+23ссв22880 0.0 101376
02:30+23ссз249110 0.0 1010100
05:30+22с22945 0.0 101087
08:30+28ссз25650 0.0 1013565
11:30+35з23340 0.0 10121889
14:30+32зюз55490 0.0 1008858
17:30+29зюз34640 0.0 1007749
20:30+25с11831 0.0 101025
8 марта, пн
пн823:30+24с12870 0.0 101134
02:30+23ссв11890 0.0 100928
05:30+23в11870 0.0 101024
08:30+29юв01590 0.0 1012367
11:30+33юз43490 0.0 10121140
14:30+32юз43569 0.6 1009958
17:30+30юз236550 2.7 1008721
20:30+26ссз128366 0.1 101161